Location: ????????
(55.3939°N, 37.4780°E)
Time: 22:08:05
(UTC+00:00)

SL-16 R/B - Pass Details

Date: 14 April 2026
Orbit: 839 x 849 km, 71.0° (Epoch: 13 May)

Event Time Altitude Azimuth Distance (km) Brightness Sun altitude
Exits shadow 22:55:02 - 276° (W) 3,359 5.2 -22.6°
Reaches altitude 10° 22:57:59 10° 292° (WNW) 2,473 4.6 -22.4°
Maximum altitude 23:02:11 21° 340° (NNW) 1,839 4.4 -22.1°
Drops below altitude 10° 23:06:23 10° 28° (NNE) 2,482 5.8 -21.9°
Sets 23:09:31 0° 44° (NE) 3,421 6.6 -21.7°
